Change the Weather History Date:

Monday, May 20, 2013

  Actual Average Record
Temperature  
Mean Temperature 75 °F 72 °F  
Max Temperature 85 °F 82 °F 97 °F (1962)
Min Temperature 65 °F 61 °F 41 °F (2002)
Cooling Degree Days 10 7  
Month to date cooling degree days 77 106  
Year to date cooling degree days 154 190  
Growing Degree Days 24 (Base 50)    
Moisture  
Dew Point 65 °F    
Average Humidity 74    
Maximum Humidity 93    
Minimum Humidity 55    
Precipitation  
Precipitation 0.00 in 0.17 in 1.72 in (2010)
Month to date precipitation 5.96 3.27  
Year to date precipitation 30.51 22.25  
Sea Level Pressure  
Sea Level Pressure 30.05 in    
Wind  
Wind Speed 5 mph (SSE)    
Max Wind Speed 13 mph    
Max Gust Speed 16 mph    
Visibility 10 miles    
Events      
T = Trace of Precipitation, MM = Missing Value Source: NWS Daily Summary

Daily Weather History Graph

Daily Weather History Graph

Search for Another Location

Airport or City:

Trip Planner

Search our weather history database for the weather conditions in past years. The results will help you decide how hot, cold, wet, or windy it might be!

Date:

Astronomy

May. 20, 2013 Rise Set
Actual Time 5:43 AM CDT 7:44 PM CDT
Civil Twilight 5:15 AM CDT 8:12 PM CDT
Nautical Twilight 4:41 AM CDT 8:46 PM CDT
Astronomical Twilight 4:05 AM CDT 9:22 PM CDT
Moon 3:04 PM CDT (5/20) 2:23 AM CDT (5/20)
Length of Visible Light 14h 57m
Length of Day
14h 01m
Waxing Gibbous, 75% of the Moon is Illuminated
May 20
Waxing Gibbous
May 24
Full
May 31
Last Quarter
Jun 8
New
Jun 16
First Quarter

Hourly Weather History & Observations

Time (CDT) Temp. Heat Index Dew Point Humidity Pressure Visibility Wind Dir Wind Speed Gust Speed Precip Events Conditions
12:53 AM 70.0 °F - 61.0 °F 73% 30.00 in 10.0 mi West 3.5 mph - N/A   Clear
1:53 AM 69.1 °F - 61.0 °F 75% 30.01 in 10.0 mi Calm Calm - N/A   Clear
2:53 AM 69.8 °F - 62.6 °F 78% 30.04 in 10.0 mi Calm Calm - N/A   Clear
3:53 AM 68.0 °F - 63.0 °F 84% 30.02 in 10.0 mi Calm Calm - N/A   Clear
4:53 AM 66.0 °F - 63.0 °F 90% 30.02 in 10.0 mi Calm Calm - N/A   Clear
5:53 AM 64.4 °F - 62.6 °F 94% 30.05 in 9.0 mi Calm Calm - N/A   Clear
6:16 AM 66.2 °F - 62.6 °F 88% 30.06 in 10.0 mi Calm Calm - N/A   Partly Cloudy
6:48 AM 68.0 °F - 64.4 °F 88% 30.07 in 10.0 mi Calm Calm - N/A   Mostly Cloudy
6:53 AM 68.0 °F - 64.4 °F 88% 30.07 in 10.0 mi Calm Calm - N/A   Mostly Cloudy
7:53 AM 71.1 °F - 66.0 °F 84% 30.07 in 10.0 mi SSE 5.8 mph - N/A   Overcast
8:53 AM 73.0 °F - 66.0 °F 79% 30.09 in 10.0 mi Variable 5.8 mph - N/A   Overcast
9:14 AM 73.4 °F - 66.2 °F 78% 30.11 in 7.0 mi WSW 6.9 mph - N/A   Overcast
9:53 AM 75.0 °F - 66.9 °F 76% 30.10 in 9.0 mi SW 6.9 mph - N/A   Overcast
10:53 AM 77.0 °F - 66.0 °F 69% 30.09 in 10.0 mi South 8.1 mph - N/A   Mostly Cloudy
11:01 AM 78.8 °F - 66.2 °F 65% 30.11 in 10.0 mi South 5.8 mph - N/A   Mostly Cloudy
11:18 AM 78.8 °F - 66.2 °F 65% 30.11 in 10.0 mi SSE 6.9 mph - N/A   Mostly Cloudy
11:29 AM 78.8 °F - 66.2 °F 65% 30.11 in 10.0 mi South 5.8 mph - N/A   Mostly Cloudy
11:37 AM 78.8 °F - 66.2 °F 65% 30.10 in 10.0 mi Variable 3.5 mph - N/A   Mostly Cloudy
11:53 AM 79.0 °F - 68.0 °F 69% 30.08 in 10.0 mi SE 5.8 mph - N/A   Mostly Cloudy
12:00 PM 78.8 °F - 66.2 °F 65% 30.10 in 10.0 mi Variable 4.6 mph - N/A   Mostly Cloudy
12:13 PM 78.8 °F - 66.2 °F 65% 30.10 in 10.0 mi Variable 4.6 mph - N/A   Mostly Cloudy
12:53 PM 81.0 °F 83.3 °F 66.9 °F 62% 30.06 in 10.0 mi SSW 5.8 mph - N/A   Mostly Cloudy
1:53 PM 82.9 °F 85.0 °F 66.0 °F 56% 30.05 in 10.0 mi Variable 4.6 mph - N/A   Mostly Cloudy
2:53 PM 84.0 °F 86.5 °F 66.9 °F 56% 30.03 in 10.0 mi SE 9.2 mph - N/A   Partly Cloudy
3:53 PM 84.0 °F 86.3 °F 66.0 °F 55% 30.02 in 10.0 mi Variable 4.6 mph - N/A   Scattered Clouds
4:53 PM 84.0 °F 86.5 °F 66.9 °F 56% 30.00 in 10.0 mi ESE 12.7 mph - N/A   Scattered Clouds
5:53 PM 82.9 °F 85.4 °F 66.9 °F 58% 29.99 in 10.0 mi SE 9.2 mph - N/A   Clear
6:53 PM 81.0 °F 83.0 °F 66.0 °F 60% 29.99 in 10.0 mi SE 4.6 mph - N/A   Partly Cloudy
7:53 PM 79.0 °F - 66.9 °F 66% 29.99 in 10.0 mi SE 5.8 mph - N/A   Clear
9:53 PM 77.0 °F - 66.0 °F 69% 29.99 in 10.0 mi SE 5.8 mph - N/A   Clear
10:53 PM 75.9 °F - 66.0 °F 71% 30.01 in 10.0 mi SE 4.6 mph - N/A   Clear
11:53 PM 73.9 °F - 66.0 °F 76% 30.00 in 10.0 mi SE 4.6 mph - N/A   Clear